User: anonymous   Login
Location: Unspecified
(0.0000°N, 0.0000°E)
Time: 14:31:34
(UTC+00:00)
Language:

ARIANE 5 DEB (SYLDA) - Orbit

View from above orbital plane
View from above orbital plane
View from above satellite
View from above satellite

Ground track
Ground track

The orbit data is extracted from the following two-line orbital elements,

1 26722U 01011D   17202.71924219 -.00000098 +00000-0 -49925-2 0  9999
2 26722 002.2558 009.9120 7068208 045.0588 290.1187 02.22885569133344
Epoch (UTC): 21 July 2017 17:15:42
Eccentricity: 0.7068208
inclination: 2.2558°
perigee height: 880 km
apogee height: 35875 km
right ascension of ascending node: 9.9120°
argument of perigee: 45.0588°
revolutions per day: 2.22885569
mean anomaly at epoch: 290.1187°
orbit number at epoch: 13334

The dashed part of the orbit path shows where the satellite is in the earth's shadow,  

DLR